Home   Weather   Oberursel (Taunus)   Past weeks

Flag for Germany Past Weather in Oberursel (Taunus), Hesse, Germany — Yesterday and Last 2 Weeks

Now
12 °F

Ice fog.


Feels Like: 12 °F
Forecast: 25 / 31 °F
Wind: 1 mph from Northeast

Location: Frankfurt-M-Flughafen Airport

Current Time: Jan 23, 2017 at 3:48:35 am

Latest Report: Jan 23, 2017 at 3:20 am


Visibility: 3 mi

Pressure: 30.27 "Hg

Humidity: 92%

Dew Point: 10 °F

Location of Oberursel (Taunus)Location

Past Weather in Oberursel (Taunus) — Graph

°F

Oberursel (Taunus) Temperature Yesterday

Maximum temperature yesterday: 34 °F (at 2:20 pm)
Minimum temperature yesterday: 18 °F (at 4:50 am)
Average temperature yesterday: 24 °F

High & Low Weather Summary for the Past Weeks

 TemperatureHumidityPressure
High43 °F (Jan 12, 12:50 pm)100% (Jan 9, 11:50 pm)30.66 "Hg (Jan 9, 11:50 pm)
Low12 °F (Jan 23, 2:50 am)28% (Jan 20, 3:20 pm)29.15 "Hg (Jan 13, 12:50 am)
Average31 °F78%30.19 "Hg
* Reported Jan 8 2:20 am — Jan 23 2:50 am, Oberursel (Taunus), Weather by CustomWeather, © 2017

Note: Actual official high and low records may vary slightly from our data, if they occured in-between our weather recording intervals... More about our weather records

Advertising

Oberursel (Taunus) Weather History for the Previous 24 Hours

Scroll right to see more
 ConditionsComfort  
Time TempWeatherWind HumidityBarometerVisibility
2:50 am
Mon, Jan 23
12 °FIce fog.1 mph92%30.27 "Hg3 mi
2:20 am14 °FIce fog.No wind85%30.27 "Hg3 mi
1:50 am14 °FIce fog.1 mph85%30.27 "Hg3 mi
1:20 am14 °FIce fog.1 mph92%30.27 "Hg3 mi
12:50 am16 °FIce fog.1 mph86%30.27 "Hg3 mi
12:20 am16 °FClear.1 mph93%30.27 "Hg4 mi
11:50 pm
Sun, Jan 22
18 °FClear.1 mph86%30.27 "Hg4 mi
11:20 pm18 °FClear.1 mph86%30.27 "Hg4 mi
10:50 pm19 °FClear.1 mph86%30.27 "Hg4 mi
10:20 pm19 °FClear.2 mph86%30.27 "Hg4 mi
9:50 pm19 °FClear.1 mph86%30.27 "Hg4 mi
9:20 pm19 °FClear.2 mph86%30.27 "Hg4 mi
8:50 pm21 °FClear.1 mph86%30.27 "Hg4 mi
8:20 pm23 °FClear.2 mph80%30.27 "Hg6 mi
7:50 pm23 °FClear.1 mph80%30.27 "Hg6 mi
7:20 pm25 °FClear.2 mph74%30.27 "Hg10 mi
6:50 pm25 °FClear.2 mph74%30.27 "Hg10 mi
6:20 pm27 °FClear.5 mph69%30.27 "Hg10 mi
5:50 pm27 °FClear.6 mph69%30.27 "Hg10 mi
5:20 pm28 °FClear.5 mph69%30.24 "Hg6 mi
4:50 pm32 °FSunny.5 mph60%30.27 "Hg10 mi
4:20 pm32 °FSunny.6 mph60%30.27 "Hg10 mi
3:50 pm34 °FSunny.6 mph56%30.27 "Hg10 mi
3:20 pm34 °FSunny.6 mph56%30.27 "Hg10 mi
2:50 pm34 °FPassing clouds.7 mph51%30.27 "HgN/A
2:20 pm34 °FSunny.7 mph51%30.27 "Hg10 mi
1:50 pm32 °FPassing clouds.7 mph55%30.27 "HgN/A
1:20 pm32 °FPassing clouds.8 mph55%30.30 "HgN/A
12:50 pm32 °FPassing clouds.8 mph55%30.30 "HgN/A
12:20 pm30 °FSunny.8 mph59%30.30 "Hg10 mi
11:50 am30 °FPassing clouds.9 mph59%30.33 "HgN/A
11:20 am28 °FSunny.9 mph69%30.33 "Hg10 mi
10:50 am27 °FPassing clouds.8 mph69%30.33 "HgN/A
10:20 am25 °FSunny.9 mph74%30.33 "Hg10 mi
9:50 am23 °FSunny.6 mph80%30.33 "Hg10 mi
9:20 am23 °FSunny.5 mph74%30.33 "Hg10 mi
8:50 am19 °FSunny.6 mph79%30.33 "Hg10 mi
8:20 am18 °FSunny.6 mph86%30.33 "Hg10 mi
7:50 am18 °FClear.6 mph86%30.33 "Hg10 mi
7:20 am18 °FClear.8 mph79%30.33 "Hg10 mi
6:50 am18 °FClear.7 mph86%30.33 "Hg10 mi
6:20 am19 °FClear.7 mph79%30.33 "Hg10 mi
5:50 am19 °FClear.7 mph79%30.33 "Hg10 mi
5:20 am19 °FClear.7 mph79%30.33 "Hg10 mi
4:50 am18 °FClear.5 mph86%30.33 "Hg10 mi
4:20 am19 °FClear.5 mph79%30.33 "Hg10 mi
3:50 am19 °FClear.5 mph79%30.36 "Hg10 mi
3:20 am19 °FClear.8 mph86%30.36 "Hg10 mi
Weather by CustomWeather, © 2017

See weather overviewHow to use our weather pages